| time (UTC) | temp C | wind direction | speed KPH | gust KPH | rain 1hr cm | rain 24hr cm | rain mn cm | humidity % | barometer mb |
| 20260507091506 | 12 | 9 | 0.0 | 0.0 | 0.00 | 0.00 | 0.30 | 84 | 1010.2 |
| 20260507090100 | 12 | 9 | 0.0 | 0.0 | 0.00 | 0.00 | 0.30 | 83 | 1010.0 |
| 20260507084601 | 13 | 9 | 0.0 | 0.0 | 0.00 | 0.00 | 0.30 | 83 | 1009.9 |
| 20260507083112 | 13 | 5 | 0.0 | 0.0 | 0.00 | 0.00 | 0.30 | 84 | 1009.8 |
| 20260507081600 | 13 | 5 | 0.0 | 0.0 | 0.00 | 0.00 | 0.30 | 85 | 1009.2 |
| 20260507080052 | 13 | 9 | 0.0 | 0.0 | 0.00 | 0.00 | 0.30 | 84 | 1009.2 |
| 20260507074558 | 13 | 346 | 0.0 | 0.0 | 0.00 | 0.00 | 0.30 | 84 | 1009.0 |
| 20260507073059 | 13 | 5 | 0.0 | 0.0 | 0.00 | 0.00 | 0.30 | 84 | 1009.0 |
| 20260507071550 | 13 | 355 | 0.0 | 0.0 | 0.00 | 0.00 | 0.30 | 85 | 1008.4 |
| 20260507070050 | 13 | 360 | 1.6 | 0.0 | 0.00 | 0.00 | 0.30 | 85 | 1008.9 |
| 20260507064549 | 13 | 5 | 1.6 | 0.0 | 0.00 | 0.00 | 0.30 | 86 | 1008.3 |
| 20260507063049 | 13 | 71 | 1.6 | 0.0 | 0.00 | 0.00 | 0.30 | 86 | 1008.0 |
| 20260507061545 | 14 | 53 | 1.6 | 0.0 | 0.00 | 0.00 | 0.30 | 88 | 1008.5 |
| 20260507060043 | 14 | 297 | 1.6 | 0.0 | 0.00 | 0.00 | 0.30 | 86 | 1008.6 |
| 20260507054543 | 15 | 320 | 0.0 | 0.0 | 0.00 | 0.00 | 0.30 | 86 | 1008.5 |
| 20260507053037 | 15 | 360 | 3.2 | 0.0 | 0.00 | 0.00 | 0.23 | 85 | 1008.5 |
| 20260507051534 | 16 | 14 | 0.0 | 0.0 | 0.00 | 0.00 | 0.13 | 85 | 1008.9 |
| 20260507050036 | 17 | 295 | 0.0 | 0.0 | 0.00 | 0.00 | 0.08 | 82 | 1008.7 |
| 20260507044535 | 18 | 307 | 1.6 | 0.0 | 0.00 | 0.00 | 0.00 | 77 | 1009.1 |
| 20260507043025 | 18 | 360 | 1.6 | 0.0 | 0.00 | 0.00 | 0.00 | 76 | 1008.4 |
| 20260507041530 | 18 | 5 | 0.0 | 0.0 | 0.00 | 0.00 | 0.00 | 75 | 1008.0 |
| 20260507040019 | 18 | 12 | 3.2 | 0.0 | 0.00 | 0.00 | 0.00 | 74 | 1007.9 |
| 20260507034518 | 18 | 346 | 3.2 | 0.0 | 0.00 | 0.00 | 0.23 | 76 | 1008.1 |
| 20260507033020 | 19 | 360 | 1.6 | 0.0 | 0.00 | 0.00 | 0.23 | 80 | 1007.9 |
| 20260507031524 | 19 | 312 | 0.0 | 0.0 | 0.00 | 0.00 | 0.23 | 84 | 1007.5 |
| 20260507030015 | 19 | 312 | 0.0 | 0.0 | 0.00 | 0.00 | 0.23 | 83 | 1007.6 |
| 20260507024516 | 18 | 298 | 0.0 | 0.0 | 0.00 | 0.00 | 0.23 | 84 | 1007.1 |
| 20260507023015 | 18 | 298 | 0.0 | 0.0 | 0.00 | 0.00 | 0.23 | 84 | 1007.2 |
| 20260507021516 | 18 | 298 | 0.0 | 0.0 | 0.00 | 0.00 | 0.23 | 83 | 1007.0 |
| 20260507020014 | 19 | 298 | 0.0 | 0.0 | 0.00 | 0.00 | 0.23 | 82 | 1007.1 |
| 20260507014517 | 19 | 298 | 0.0 | 0.0 | 0.00 | 0.00 | 0.23 | 82 | 1007.2 |
| 20260507013020 | 19 | 298 | 0.0 | 0.0 | 0.00 | 0.00 | 0.23 | 82 | 1007.7 |
| 20260507011518 | 19 | 298 | 0.0 | 0.0 | 0.00 | 0.00 | 0.23 | 83 | 1007.9 |
| 20260507010012 | 19 | 298 | 0.0 | 0.0 | 0.00 | 0.00 | 0.23 | 82 | 1007.6 |
| 20260507004528 | 19 | 298 | 0.0 | 0.0 | 0.00 | 0.00 | 0.23 | 82 | 1007.3 |
| 20260507003011 | 20 | 298 | 0.0 | 0.0 | 0.00 | 0.00 | 0.23 | 80 | 1007.2 |
| 20260507001511 | 20 | 298 | 0.0 | 0.0 | 0.00 | 0.00 | 0.23 | 80 | 1007.3 |
| 20260507000014 | 20 | 298 | 0.0 | 0.0 | 0.00 | 0.00 | 0.23 | 79 | 1007.2 |
| 20260506234510 | 20 | 298 | 0.0 | 0.0 | 0.00 | 0.00 | 0.23 | 78 | 1007.0 |
| 20260506233009 | 21 | 298 | 0.0 | 0.0 | 0.00 | 0.00 | 0.23 | 77 | 1006.8 |
| 20260506231522 | 21 | 298 | 0.0 | 0.0 | 0.00 | 0.00 | 0.23 | 77 | 1006.6 |
| 20260506230008 | 21 | 286 | 0.0 | 0.0 | 0.00 | 0.00 | 0.23 | 77 | 1006.7 |
| 20260506224508 | 21 | 248 | 0.0 | 0.0 | 0.00 | 0.00 | 0.23 | 76 | 1006.6 |
| 20260506223007 | 21 | 205 | 0.0 | 0.0 | 0.00 | 0.00 | 0.23 | 75 | 1006.7 |
| 20260506221507 | 21 | 246 | 0.0 | 0.0 | 0.00 | 0.00 | 0.23 | 75 | 1006.7 |
| 20260506220007 | 21 | 250 | 0.0 | 0.0 | 0.00 | 0.00 | 0.23 | 75 | 1006.6 |
| 20260506214506 | 21 | 210 | 0.0 | 0.0 | 0.00 | 0.00 | 0.23 | 75 | 1006.6 |
| 20260506213006 | 21 | 203 | 0.0 | 0.0 | 0.00 | 0.00 | 0.23 | 75 | 1006.4 |
| 20260506211512 | 21 | 305 | 0.0 | 0.0 | 0.00 | 0.00 | 0.23 | 75 | 1006.4 |
| 20260506210007 | 21 | 246 | 0.0 | 0.0 | 0.00 | 0.00 | 0.23 | 75 | 1006.3 |
| 20260506204506 | 21 | 343 | 0.0 | 0.0 | 0.00 | 0.00 | 0.23 | 75 | 1006.1 |
| 20260506203004 | 21 | 315 | 0.0 | 0.0 | 0.00 | 0.00 | 0.23 | 75 | 1006.2 |
| 20260506201503 | 21 | 11 | 0.0 | 0.0 | 0.00 | 0.00 | 0.23 | 76 | 1006.3 |
| 20260506200004 | 21 | 265 | 1.6 | 0.0 | 0.00 | 0.00 | 0.23 | 76 | 1006.2 |
| 20260506194623 | 21 | 311 | 1.6 | 0.0 | 0.00 | 0.00 | 0.23 | 75 | 1006.2 |
| 20260506193058 | 21 | 186 | 1.6 | 0.0 | 0.00 | 0.00 | 0.23 | 76 | 1006.4 |
| 20260506191557 | 21 | 196 | 1.6 | 0.0 | 0.00 | 0.00 | 0.23 | 76 | 1006.7 |
| 20260506190055 | 21 | 197 | 1.6 | 0.0 | 0.00 | 0.00 | 0.23 | 77 | 1006.6 |
| 20260506184606 | 20 | 250 | 1.6 | 0.0 | 0.00 | 0.00 | 0.23 | 76 | 1006.8 |
| 20260506183101 | 20 | 232 | 1.6 | 0.0 | 0.00 | 0.00 | 0.23 | 76 | 1007.0 |
| 20260506181551 | 20 | 205 | 1.6 | 0.0 | 0.00 | 0.00 | 0.23 | 78 | 1007.3 |
| 20260506180053 | 20 | 202 | 1.6 | 0.0 | 0.00 | 0.00 | 0.23 | 79 | 1007.5 |
| 20260506174548 | 19 | 219 | 0.0 | 0.0 | 0.00 | 0.00 | 0.23 | 80 | 1007.6 |
| 20260506173052 | 18 | 198 | 1.6 | 0.0 | 0.00 | 0.00 | 0.23 | 81 | 1007.6 |
| 20260506171552 | 18 | 205 | 1.6 | 0.0 | 0.00 | 0.00 | 0.23 | 83 | 1007.7 |
| 20260506170106 | 18 | 184 | 1.6 | 0.0 | 0.00 | 0.00 | 0.23 | 83 | 1007.7 |
| 20260506164547 | 17 | 237 | 1.6 | 0.0 | 0.00 | 0.00 | 0.23 | 85 | 1007.8 |
| 20260506163057 | 17 | 186 | 3.2 | 0.0 | 0.00 | 0.00 | 0.23 | 86 | 1007.8 |
| 20260506161545 | 17 | 208 | 1.6 | 0.0 | 0.00 | 0.00 | 0.23 | 88 | 1008.1 |
| 20260506160044 | 17 | 199 | 0.0 | 0.0 | 0.00 | 0.00 | 0.23 | 88 | 1008.3 |
| 20260506154543 | 17 | 5 | 1.6 | 0.0 | 0.00 | 0.00 | 0.20 | 88 | 1008.1 |
| 20260506153044 | 17 | 184 | 1.6 | 0.0 | 0.00 | 0.00 | 0.20 | 87 | 1008.4 |
| 20260506151545 | 16 | 187 | 0.0 | 0.0 | 0.00 | 0.00 | 0.18 | 87 | 1009.0 |
| 20260506150040 | 16 | 209 | 0.0 | 0.0 | 0.00 | 0.00 | 0.18 | 87 | 1008.9 |
| 20260506144550 | 17 | 209 | 0.0 | 0.0 | 0.00 | 0.00 | 0.10 | 85 | 1008.9 |
| 20260506143037 | 17 | 211 | 0.0 | 0.0 | 0.00 | 0.00 | 0.05 | 83 | 1009.0 |
| 20260506141535 | 17 | 311 | 0.0 | 0.0 | 0.00 | 0.00 | 0.05 | 82 | 1009.2 |
| 20260506140032 | 18 | 192 | 0.0 | 0.0 | 0.00 | 0.00 | 0.00 | 77 | 1009.2 |
| 20260506134532 | 18 | 203 | 0.0 | 0.0 | 0.00 | 0.00 | 0.00 | 73 | 1009.4 |
| 20260506133030 | 18 | 248 | 0.0 | 0.0 | 0.00 | 0.00 | 0.00 | 72 | 1009.1 |
| 20260506131534 | 19 | 204 | 1.6 | 0.0 | 0.00 | 0.00 | 0.00 | 72 | 1009.0 |
| 20260506130030 | 19 | 197 | 0.0 | 0.0 | 0.00 | 0.00 | 0.00 | 71 | 1008.8 |
| 20260506124530 | 19 | 205 | 1.6 | 0.0 | 0.00 | 0.00 | 0.00 | 72 | 1008.9 |
| 20260506123032 | 19 | 205 | 0.0 | 0.0 | 0.00 | 0.00 | 0.00 | 72 | 1009.0 |
| 20260506121529 | 19 | 198 | 1.6 | 0.0 | 0.00 | 0.00 | 0.00 | 72 | 1009.1 |
| 20260506120039 | 19 | 202 | 1.6 | 0.0 | 0.00 | 0.00 | 0.00 | 73 | 1009.1 |
| 20260506114532 | 19 | 202 | 1.6 | 0.0 | 0.00 | 0.00 | 0.00 | 74 | 1008.9 |
| 20260506113031 | 18 | 207 | 1.6 | 0.0 | 0.00 | 0.00 | 0.00 | 75 | 1008.9 |
| 20260506111527 | 18 | 197 | 0.0 | 0.0 | 0.00 | 0.00 | 0.00 | 78 | 1008.7 |
| 20260506110026 | 18 | 199 | 1.6 | 0.0 | 0.00 | 0.00 | 0.00 | 77 | 1008.5 |
| 20260506104526 | 18 | 196 | 0.0 | 0.0 | 0.00 | 0.00 | 0.00 | 76 | 1008.5 |
| 20260506103025 | 18 | 222 | 0.0 | 0.0 | 0.00 | 0.00 | 0.00 | 76 | 1008.5 |
| 20260506101525 | 18 | 193 | 0.0 | 0.0 | 0.00 | 0.00 | 0.00 | 76 | 1008.3 |
| 20260506100027 | 18 | 205 | 0.0 | 0.0 | 0.00 | 0.00 | 0.00 | 75 | 1008.4 |
| 20260506094522 | 18 | 205 | 1.6 | 0.0 | 0.00 | 0.00 | 0.00 | 75 | 1008.5 |
| 20260506093024 | 18 | 202 | 0.0 | 0.0 | 0.00 | 0.00 | 0.00 | 76 | 1008.6 |